Location: Haliburton Scout Reserve
(45.0900°N, 78.3200°W)
Time: 00:55:32
(UTC-05:00)

Vanguard 1 Rocket - Visible Passes

Search period start: 06 February 2023 00:00
Search period end: 16 February 2023 00:00
Orbit: 651 x 4224 km, 34.3° (Epoch: 05 February)

Date Brightness Start Highest point End Pass type
(mag) Time Alt. Az. Time Alt. Az. Time Alt. Az.
06 Feb 12.0 18:40:54 10° W 18:56:33 27° SW 19:15:19 10° S visible
07 Feb 11.8 17:27:17 10° W 17:42:55 35° SSW 18:04:11 10° SSE visible
07 Feb 12.2 20:03:46 10° WSW 20:11:22 12° SW 20:19:25 10° SSW visible
08 Feb 12.1 18:44:50 10° W 18:58:13 21° SW 19:14:10 10° S visible
09 Feb 12.0 17:30:30 10° W 17:44:47 29° SW 18:04:04 10° SSE visible
10 Feb 12.2 18:49:58 10° WSW 18:59:59 15° SW 19:11:32 10° SSW visible
11 Feb 12.1 17:34:10 10° W 17:46:43 23° SW 18:03:16 10° S visible
13 Feb 12.3 17:38:40 10° WSW 17:48:44 17° SW 18:01:22 10° S visible
